Lake Howard Weather Center

Moon Phase Calendar



Lake Howard Water Level
Online Cameras

 


      

Current Conditions in Winter Haven
7/2/2022 4:14:16 PM

84°F
Feels Like 91
Clouds
Humidity
69%
Pressure
30.06"
Wind
12.7 mph (NW)
Dew Point
73°F
UV Index
6/10 (High)
Visibility
6 mi

Hourly Forecast

Date & Time Sat, Jul 2
4:00 PM
Sat, Jul 2
5:00 PM
Sat, Jul 2
6:00 PM
Sat, Jul 2
7:00 PM
Sat, Jul 2
8:00 PM
Sat, Jul 2
9:00 PM
Sat, Jul 2
10:00 PM
Sat, Jul 2
11:00 PM
Sun, Jul 3
12:00 AM
Sun, Jul 3
1:00 AM
Sun, Jul 3
2:00 AM
Sun, Jul 3
3:00 AM
Sun, Jul 3
4:00 AM
Sun, Jul 3
5:00 AM
Sun, Jul 3
6:00 AM
Sun, Jul 3
7:00 AM
Sun, Jul 3
8:00 AM
Sun, Jul 3
9:00 AM
Sun, Jul 3
10:00 AM
Sun, Jul 3
11:00 AM
Sun, Jul 3
12:00 PM
Sun, Jul 3
1:00 PM
Sun, Jul 3
2:00 PM
Sun, Jul 3
3:00 PM
Sun, Jul 3
4:00 PM
Sun, Jul 3
5:00 PM
Sun, Jul 3
6:00 PM
Sun, Jul 3
7:00 PM
Sun, Jul 3
8:00 PM
Sun, Jul 3
9:00 PM
Sun, Jul 3
10:00 PM
Sun, Jul 3
11:00 PM
Mon, Jul 4
12:00 AM
Mon, Jul 4
1:00 AM
Mon, Jul 4
2:00 AM
Mon, Jul 4
3:00 AM
Mon, Jul 4
4:00 AM
Mon, Jul 4
5:00 AM
Mon, Jul 4
6:00 AM
Mon, Jul 4
7:00 AM
Mon, Jul 4
8:00 AM
Mon, Jul 4
9:00 AM
Mon, Jul 4
10:00 AM
Mon, Jul 4
11:00 AM
Mon, Jul 4
12:00 PM
Mon, Jul 4
1:00 PM
Mon, Jul 4
2:00 PM
Mon, Jul 4
3:00 PM
Condition
Clouds

Clouds

Clouds

Rain

Rain

Clouds

Rain

Clouds

Clouds

Clouds

Clouds

Clouds

Clouds

Clouds

Clouds

Clouds

Rain

Clouds

Clouds

Rain

Rain

Rain

Rain

Rain

Rain

Rain

Rain

Rain

Rain

Rain

Clouds

Clouds

Clouds

Clouds

Clouds

Clouds

Clouds

Clouds

Clouds

Clouds

Clouds

Clouds

Clouds

Clouds

Clouds

Clouds

Rain

Rain
Temperature 84°F85°F84°F82°F80°F78°F78°F78°F78°F77°F77°F76°F76°F75°F75°F75°F78°F81°F84°F85°F87°F89°F90°F91°F90°F87°F77°F74°F70°F72°F74°F75°F75°F75°F75°F75°F75°F74°F74°F75°F77°F80°F83°F85°F87°F89°F90°F91°F
Feels Like 91°F91°F90°F88°F80°F80°F79°F80°F79°F79°F78°F78°F77°F77°F76°F76°F79°F85°F90°F92°F94°F94°F96°F96°F95°F94°F79°F76°F71°F73°F75°F77°F77°F77°F77°F76°F76°F76°F76°F76°F78°F84°F88°F90°F92°F94°F96°F96°F
Cloudiness 100%100%100%100%100%100%100%100%99%99%99%85%84%89%85%85%83%14%11%10%16%32%43%99%100%100%100%100%100%100%100%100%100%100%99%100%93%73%71%72%67%38%44%52%56%61%66%95%
Visibility 6 mi6 mi6 mi6 mi6 mi6 mi6 mi6 mi6 mi6 mi6 mi6 mi6 mi6 mi6 mi6 mi6 mi6 mi6 mi6 mi6 mi6 mi6 mi6 mi6 mi6 mi1 mi1 mi4 mi6 mi6 mi6 mi6 mi6 mi6 mi6 mi6 mi6 mi6 mi6 mi6 mi6 mi6 mi6 mi6 mi6 mi6 mi6 mi
Precipitation 53%61%65%73%85%76%92%72%88%85%81%0%8%4%8%16%20%0%12%49%61%72%76%56%69%77%89%100%100%76%76%76%76%72%68%1%1%1%1%1%1%0%0%0%12%25%29%33%
Humidity 69%67%71%74%80%81%81%81%84%85%86%88%88%89%89%89%83%75%68%65%60%55%52%50%52%62%90%95%93%89%90%89%89%88%89%90%90%90%90%90%84%76%68%61%58%55%52%49%
Dew Point 73°F73°F73°F73°F73°F72°F72°F72°F73°F72°F72°F72°F72°F72°F71°F72°F72°F72°F72°F72°F72°F71°F71°F70°F69°F72°F74°F73°F68°F69°F71°F72°F72°F72°F72°F72°F72°F71°F71°F71°F72°F72°F71°F70°F70°F70°F70°F69°F
Pressure 30.06"30.06"30.03"30.03"30.03"30.03"30.06"30.06"30.06"30.03"30.03"30.03"30.03"30.03"30.03"30.06"30.06"30.09"30.09"30.09"30.09"30.09"30.09"30.06"30.03"30"30.03"30.03"30.09"30.09"30.09"30.09"30.09"30.09"30.09"30.06"30.06"30.06"30.06"30.09"30.09"30.12"30.12"30.12"30.12"30.12"30.09"30.06"
Wind Speed 3.3 mph5.4 mph5.1 mph5.1 mph6 mph3.7 mph6.7 mph6.3 mph5.7 mph6.9 mph7.4 mph6.4 mph6.2 mph5.9 mph5.9 mph5.3 mph5.8 mph6.2 mph6.2 mph5.7 mph5 mph4.3 mph4.5 mph4.3 mph1.2 mph4.7 mph9.8 mph13.9 mph8 mph6.1 mph6.3 mph4.6 mph4.5 mph4.2 mph5.2 mph5.3 mph5.3 mph4.9 mph4.6 mph4.9 mph4.8 mph5.4 mph5.7 mph5.6 mph5 mph4.7 mph4.6 mph4.6 mph
Wind
Direction
336°
NNW
21°
NNE

N

N
349°
N
11°
N
35°
NE
60°
ENE
109°
ESE
135°
SE
149°
SSE
156°
SSE
161°
SSE
158°
SSE
163°
SSE
175°
S
177°
S
189°
S
203°
SSW
206°
SSW
217°
SW
237°
WSW
242°
WSW
253°
WSW
170°
S
318°
NW
350°
N
10°
N
95°
E
133°
SE
106°
ESE
153°
SSE
165°
SSE
122°
ESE
109°
ESE
112°
ESE
121°
ESE
125°
SE
123°
ESE
126°
SE
127°
SE
134°
SE
140°
SE
142°
SE
138°
SE
130°
SE
121°
ESE
97°
E

Daily Forecast

Date High Low Precip. Humidity
Today
Jul 2

Rain
87 °F
75 °F
100%
60%
Sunday
Jul 3

Rain
91 °F
70 °F
100%
55%
Monday
Jul 4

Rain
91 °F
74 °F
76%
52%
Tuesday
Jul 5

Rain
94 °F
76 °F
27%
46%
Wednesday
Jul 6

Rain
95 °F
76 °F
68%
46%
Thursday
Jul 7

Rain
93 °F
77 °F
81%
48%
Friday
Jul 8

Rain
90 °F
76 °F
69%
54%
Saturday
Jul 9

Rain
92 °F
76 °F
83%
44%
Sunday
Jul 10

Clouds
92 °F
76 °F
79%
47%
Monday
Jul 11

Rain
93 °F
76 °F
57%
45%
Tuesday
Jul 12

Rain
88 °F
76 °F
100%
59%
Wednesday
Jul 13

Rain
78 °F
73 °F
100%
83%
Thursday
Jul 14

Rain
88 °F
72 °F
100%
63%
Friday
Jul 15

Rain
93 °F
76 °F
64%
46%
Saturday
Jul 16

Clouds
94 °F
77 °F
52%
50%
Sunday
Jul 17

Clouds
95 °F
78 °F
8%
41%

Temperature 8-14 Day Outlook



Precipitation 8-14 Day Outlook




Quick Links
Lake Howard News
Lake Howard Photos
Lake Howard Videos




About Us
Contact Us
Site Map
Search Site
Advertise With Us
   
Howard.USLakes.info
THE LAKE HOWARD WEBSITE

Copyright 2022, Lakes Online
Privacy    |    Legal